Date,TemperatureHighF,TemperatureAvgF,TemperatureLowF,DewpointHighF,DewpointAvgF,DewpointLowF,HumidityHigh,HumidityAvg,HumidityLow,PressureMaxIn,PressureMinIn,WindSpeedMaxMPH,WindSpeedAvgMPH,GustSpeedMaxMPH,PrecipitationSumIn
2013-3-1,24,15,5,18,11,0,88,83,76,30.49,30.35,3,0,7,0.00
2013-3-2,30,16,-1,22,12,-5,92,81,71,30.46,30.13,5,0,13,0.00
2013-3-3,37,27,18,30,23,14,93,85,75,30.13,29.79,6,1,11,0.02
2013-3-4,36,28,22,32,25,18,94,88,78,29.94,29.77,5,0,9,0.03
2013-3-5,24,21,17,21,18,14,92,88,82,30.48,29.93,13,3,17,0.02
2013-3-6,24,16,12,17,13,9,92,86,72,30.52,30.33,7,1,11,0.00
2013-3-7,35,24,18,29,21,15,93,87,76,30.35,30.17,6,1,11,0.00
2013-3-8,32,26,16,30,23,13,100,92,86,30.28,30.02,15,4,19,0.09
2013-3-9,32,30,25,31,28,24,97,96,95,30.02,29.79,10,2,13,0.52
2013-3-10,25,18,7,24,16,5,95,91,88,30.22,30.00,13,4,18,0.00
2013-3-11,27,15,4,22,11,0,97,85,75,30.15,29.95,5,0,8,0.00
2013-3-12,26,21,14,24,18,10,94,89,84,30.40,30.00,16,4,20,0.04
2013-3-13,29,16,1,26,12,-2,88,83,74,30.48,30.17,4,0,9,0.00
2013-3-14,41,32,24,34,28,21,92,85,74,30.18,30.06,6,0,7,0.00
2013-3-15,32,24,14,30,23,12,100,94,89,30.09,29.89,17,7,19,0.00
2013-3-16,16,8,1,12,5,-1,92,86,79,30.39,30.08,9,2,14,0.00
2013-3-17,30,17,4,29,13,0,95,84,74,30.38,29.66,9,3,19,0.52
2013-3-18,33,13,4,32,11,1,96,90,86,30.12,29.57,16,7,26,0.04
2013-3-19,16,7,-2,12,3,-7,92,83,78,30.50,30.12,12,2,15,0.00
2013-3-20,16,6,-3,10,2,-6,88,83,74,30.52,30.30,7,2,11,0.00
2013-3-21,19,6,-7,13,2,-11,95,83,77,30.30,30.15,10,2,12,0.00
2013-3-22,32,15,1,23,10,-2,89,82,67,30.23,30.14,5,1,9,0.00
2013-3-23,28,21,16,21,16,13,89,83,73,30.27,30.21,7,0,9,0.00
2013-3-24,28,22,16,24,18,14,91,86,80,30.28,30.16,14,3,17,0.00
2013-3-25,27,20,10,20,16,7,91,85,73,30.44,30.27,10,2,13,0.01
2013-3-26,29,17,8,22,13,4,91,84,73,30.45,30.34,6,1,8,0.00
2013-3-27,41,27,14,32,23,11,91,84,67,30.37,30.30,9,2,11,0.00
2013-3-28,43,34,28,36,30,25,94,85,72,30.31,30.22,6,1,7,0.00
2013-3-29,53,40,33,43,35,30,93,82,68,30.25,29.92,7,0,9,0.00
2013-3-30,42,35,31,39,33,30,96,93,84,30.02,29.92,9,2,11,0.05
2013-3-31,34,28,18,32,23,13,96,82,65,30.29,29.96,11,4,18,0.00